Deelen, Netherlands

8:54 AM CET on January 16, 2018 (GMT +0100)
Deelen Air Base

Weather History for EHDL - January, 2013

Change the Weather History Date:

Tuesday, January 15, 2013

  Actual Average Record
Temperature  
Mean Temperature 24 °F -  
Max Temperature 26 °F 41 °F 50 °F (2011)
Min Temperature 23 °F 32 °F 21 °F (2017)
Degree Days  
Heating Degree Days 40    
Moisture  
Dew Point 23 °F    
Average Humidity 91    
Maximum Humidity 100    
Minimum Humidity 80    
Precipitation  
Precipitation 0.00 in - - ()
Sea Level Pressure  
Sea Level Pressure 29.72 in    
Wind  
Wind Speed 9 mph ()    
Max Wind Speed 13 mph    
Max Gust Speed -    
Visibility 4.2 miles    
Events Snow    
Averages and records for this station are not official NWS values.
T = Trace of Precipitation, MM = Missing Value Source: Averaged Metar Reports

Daily Weather History Graph

Daily Weather History Graph

Search for Another Location

Airport or City:

Trip Planner

Search our weather history database for the weather conditions in past years. The results will help you decide how hot, cold, wet, or windy it might be!

Date:

Astronomy

Jan. 15, 2013 Rise Set
Actual Time 8:37 AM CET 4:54 PM CET
Civil Twilight 7:58 AM CET 5:33 PM CET
Nautical Twilight 7:16 AM CET 6:16 PM CET
Astronomical Twilight 6:35 AM CET 6:56 PM CET
Moon 9:58 AM CET (1/15) 10:08 PM CET (1/15)
Length of Visible Light 9h 35m
Length of Day
8h 16m
Waxing Crescent, 17% of the Moon is Illuminated
Jan 15
Waxing Crescent
Jan 19
First Quarter
Jan 27
Full
Feb 3
Last Quarter
Feb 10
New

Hourly Weather History & Observations

Time (CET) Temp. Windchill Dew Point Humidity Pressure Visibility Wind Dir Wind Speed Gust Speed Precip Events Conditions
12:25 AM 26.6 °F 16.8 °F 21.2 °F 80% 29.74 in 6.2 mi ESE 10.4 mph - N/A   Mostly Cloudy
12:55 AM 26.6 °F 16.8 °F 21.2 °F 80% 29.74 in 6.2 mi ESE 10.4 mph - N/A   Mostly Cloudy
1:25 AM 26.6 °F 15.7 °F 21.2 °F 80% 29.71 in 6.2 mi ESE 12.7 mph - N/A   Mostly Cloudy
1:55 AM 26.6 °F 16.8 °F 21.2 °F 80% 29.71 in 6.2 mi SE 10.4 mph - N/A   Mostly Cloudy
2:25 AM 26.6 °F 16.8 °F 21.2 °F 80% 29.71 in 6.2 mi ESE 10.4 mph - N/A   Mostly Cloudy
2:55 AM 26.6 °F 15.7 °F 21.2 °F 80% 29.68 in 6.2 mi East 12.7 mph - N/A   Partly Cloudy
3:25 AM 26.6 °F 15.7 °F 21.2 °F 80% 29.68 in 6.2 mi East 12.7 mph - N/A   Mostly Cloudy
3:55 AM 26.6 °F 16.2 °F 21.2 °F 80% 29.68 in 6.2 mi ESE 11.5 mph - N/A   Scattered Clouds
4:25 AM 26.6 °F 17.5 °F 23.0 °F 86% 29.68 in 0.9 mi East 9.2 mph - N/A Snow Snow
4:55 AM 24.8 °F 14.0 °F 23.0 °F 93% 29.65 in 1.1 mi East 11.5 mph - N/A Snow Snow
5:25 AM 24.8 °F 14.6 °F 23.0 °F 93% 29.65 in 1.2 mi East 10.4 mph - N/A Snow Light Snow
5:55 AM 24.8 °F 14.0 °F 24.8 °F 100% 29.65 in - East 11.5 mph - N/A Snow Light Snow
6:25 AM 24.8 °F 13.4 °F 24.8 °F 100% 29.65 in 4.3 mi East 12.7 mph - N/A   Overcast
6:55 AM 24.8 °F 16.1 °F 24.8 °F 100% 29.65 in 4.3 mi East 8.1 mph - N/A   Overcast
7:25 AM 24.8 °F 16.1 °F 24.8 °F 100% 29.68 in 3.7 mi ENE 8.1 mph - N/A   Overcast
7:55 AM 24.8 °F 16.1 °F 24.8 °F 100% 29.68 in 3.7 mi ENE 8.1 mph - N/A Snow Light Snow
8:25 AM 24.8 °F 15.3 °F 24.8 °F 100% 29.68 in 3.7 mi ENE 9.2 mph - N/A   Overcast
8:55 AM 24.8 °F 15.3 °F 24.8 °F 100% 29.68 in 4.3 mi ENE 9.2 mph - N/A   Overcast
9:25 AM 26.6 °F 17.5 °F 24.8 °F 93% 29.68 in 3.7 mi ENE 9.2 mph - N/A Snow Light Snow
9:55 AM 26.6 °F 17.5 °F 24.8 °F 93% 29.68 in 3.1 mi ENE 9.2 mph - N/A Snow Light Snow
10:25 AM 26.6 °F 18.2 °F 24.8 °F 93% 29.71 in 3.1 mi ENE 8.1 mph - N/A Snow Light Snow
10:55 AM 26.6 °F 16.8 °F 24.8 °F 93% 29.71 in 3.7 mi ENE 10.4 mph - N/A   Overcast
11:25 AM 26.6 °F 16.8 °F 24.8 °F 93% 29.71 in 3.7 mi ENE 10.4 mph - N/A   Overcast
11:55 AM 26.6 °F 17.5 °F 24.8 °F 93% 29.71 in 3.7 mi ENE 9.2 mph - N/A   Overcast
12:25 PM 26.6 °F 18.2 °F 24.8 °F 93% 29.71 in 3.1 mi ENE 8.1 mph - N/A   Overcast
12:55 PM 26.6 °F 18.2 °F 24.8 °F 93% 29.71 in 3.7 mi ENE 8.1 mph - N/A   Overcast
1:25 PM 26.6 °F 17.5 °F 24.8 °F 93% 29.71 in 4.3 mi ENE 9.2 mph - N/A   Mostly Cloudy
1:55 PM 26.6 °F 16.8 °F 24.8 °F 93% 29.71 in 5.0 mi NE 10.4 mph - N/A   Overcast
2:25 PM 26.6 °F 18.2 °F 24.8 °F 93% 29.71 in 4.3 mi NNE 8.1 mph - N/A   Overcast
2:55 PM 26.6 °F 18.2 °F 24.8 °F 93% 29.71 in 3.7 mi NNE 8.1 mph - N/A   Overcast
3:25 PM 26.6 °F 17.5 °F 24.8 °F 93% 29.71 in 3.1 mi NNE 9.2 mph - N/A Snow Light Snow
3:55 PM 26.6 °F 17.5 °F 23.0 °F 86% 29.74 in 3.1 mi North 9.2 mph - N/A   Overcast
4:25 PM 24.8 °F 15.3 °F 23.0 °F 93% 29.74 in 1.1 mi NNE 9.2 mph - N/A Snow Light Snow
4:55 PM 24.8 °F 16.9 °F 23.0 °F 93% 29.74 in 1.6 mi North 6.9 mph - N/A Snow Light Snow
5:25 PM 24.8 °F 14.6 °F 23.0 °F 93% 29.74 in - NNE 10.4 mph - N/A Snow Light Snow
5:55 PM 24.8 °F 15.3 °F 24.8 °F 100% 29.74 in 1.7 mi NNE 9.2 mph - N/A Snow Light Snow
6:25 PM 26.6 °F 16.2 °F 24.8 °F 93% 29.74 in 1.7 mi NNE 11.5 mph - N/A Snow Light Snow Grains
6:55 PM 26.6 °F 15.7 °F 24.8 °F 93% 29.74 in 1.9 mi NNE 12.7 mph - N/A   Overcast
7:25 PM 26.6 °F 17.5 °F 24.8 °F 93% 29.77 in 5.0 mi NNE 9.2 mph - N/A   Overcast
7:55 PM 26.6 °F 18.2 °F 24.8 °F 93% 29.77 in 4.3 mi NNE 8.1 mph - N/A   Overcast
8:25 PM 26.6 °F 18.2 °F 24.8 °F 93% 29.77 in 4.3 mi North 8.1 mph - N/A   Overcast
8:55 PM 24.8 °F 14.0 °F 23.0 °F 93% 29.77 in 5.6 mi NNE 11.5 mph - N/A   Mostly Cloudy
9:25 PM 24.8 °F 14.0 °F 23.0 °F 93% 29.77 in 6.2 mi NNE 11.5 mph - N/A   Mostly Cloudy
9:55 PM 24.8 °F 15.3 °F 21.2 °F 86% 29.77 in 6.2 mi NNE 9.2 mph - N/A   Overcast
10:25 PM 23.0 °F 13.1 °F 21.2 °F 93% 29.77 in 6.2 mi North 9.2 mph - N/A   Mostly Cloudy
10:55 PM 24.8 °F 14.6 °F 21.2 °F 86% 29.77 in 6.2 mi North 10.4 mph - N/A   Mostly Cloudy
11:25 PM 24.8 °F 14.6 °F 19.4 °F 80% 29.80 in 6.2 mi NNE 10.4 mph - N/A   Mostly Cloudy
11:55 PM 23.0 °F 12.4 °F 19.4 °F 86% 29.80 in 6.2 mi North 10.4 mph - N/A   Mostly Cloudy